{"data":{"norad_id":44204,"intl_designator":"2019-023A","name":"BEIDOU-3 IGSO-1 (C38)","alt_names":[],"object_type":"PAYLOAD","status":"ACTIVE","operator":null,"country":"PRC","launch_date":"2019-04-20","launch_site_code":"XICLF","launch_vehicle":null,"mission":null,"orbit_class":"UNKNOWN","rcs_meters":null,"size_class":null,"mass_kg":null,"dimensions":null,"purposes":["comms","nav"],"wikipedia_slug":null,"has_3d_model":false,"image_url":null,"decayed_at":null,"tle_current":{"epoch":"2026-09-19T18:21:00.023904Z","epoch_age_seconds":78011,"freshness":"FRESH","line1":"1 44204U 19023A   26262.76458361 -.00000194  00000+0  00000+0 0  9990","line2":"2 44204  58.8307  36.6835 0027935 223.2345 132.5629  1.00264640  8150","mean_motion":1.0026464,"eccentricity":0.0027935,"inclination_deg":58.8307,"raan_deg":36.6835,"arg_perigee_deg":223.2345,"mean_anomaly_deg":132.5629,"bstar":0,"rev_number":815,"period_min":1436.1992423251,"perigee_km":35670.805308554,"apogee_km":35906.390857463,"semimajor_km":42166.735083008,"source":"CELESTRAK","updated_at":"2026-09-20T09:00:46.711516Z"}}}